Hourly Data Report for June 23, 2012

HALIFAX STANFIELD INT'L A
NOVA SCOTIA

44°52'48.060" N
63°30'00.050" W
145.40 m
8202250
71395
YHZ

Download Data

Hourly Data (June 2012)
Hourly Data Report for June 23, 2012
TIME
LST
Temp Definition
°C
Dew Point Definition
°C
Rel Hum Definition
%
Precip. Amount Definition
mm

Wind Dir Definition
10's deg

Wind Spd Definition
km/h
Visibility Definition
km
Stn Press Definition
kPa
Hmdx Definition


Wind Chill Definition


Weather Definition


00:00 12.5 11.6 94   17 7 19.3 99.60     Cloudy
01:00 12.4 11.5 94   16 13 19.3 99.57     Cloudy
02:00 12.2 11.5 95   17 15 19.3 99.56     Cloudy
03:00 12.0 11.2 95   18 17 19.3 99.55     Cloudy
04:00 11.9 11.1 95   16 15 19.3 99.53     Cloudy
05:00 11.8 10.9 94   17 15 19.3 99.55     Cloudy
06:00 11.8 11.0 95   17 13 19.3 99.59     Cloudy
07:00 12.2 10.8 91   17 15 19.3 99.62     Mostly Cloudy
08:00 12.7 11.5 92   14 19 24.1 99.64     Cloudy
09:00 13.2 12.0 92   15 13 16.1 99.67     Cloudy
10:00 13.0 11.8 92   14 19 24.1 99.68     Cloudy
11:00 13.4 11.8 90   14 24 24.1 99.68     Cloudy
12:00 14.7 12.0 84   14 22 24.1 99.68     Cloudy
13:00 14.8 12.0 83   15 20 24.1 99.69     Cloudy
14:00 13.7 11.6 87   14 26 19.3 99.69     Cloudy
15:00 13.2 11.4 89   14 26 19.3 99.68     Cloudy
16:00 12.5 11.9 96   14 26 12.9 99.70     Rain Showers
17:00 12.6 12.3 98   15 19 12.9 99.68     Rain Showers
18:00 12.6 12.3 98   14 22 3.2 99.64     Rain Showers, Fog
19:00 12.4 12.2 99   13 20 3.2 99.58     Rain Showers, Fog
20:00 12.4 12.2 99   12 22 2.4 99.55     Rain Showers, Fog
21:00 12.8 12.6 99   12 28 3.2 99.53     Rain Showers, Fog
22:00 13.2 13.0 99   13 32 16.1 99.43     Rain Showers
23:00 13.4 13.2 99   13 28 19.3 99.40     Rain Showers

Notes on Data Quality.

Legend

  • E = Estimated
  • M = Missing
  • NA = Not Available*
  • [empty] = Indicates an unobserved value
Date modified: